ONEWEB-0338 (49204 NORAD) Tracking and Keplerian Element Data

This shows tracking and keplerian element data for the satellite.

Feedback or suggestion? Click here.




ElementValue
Catalog49204
NameONEWEB-0338
Epoch Orbit363
Epoch Day287.91667824
Epoch Year2021
RAAN317.5516
Inclination87.2162
Eccentricity0.0019845
Argument of Perigee190.318
Mean Anonmoly243.9224
Mean Motion14.93093788
Decay Rate-0.01303927
L11 49204U 21083U 21287.91667824 -.01303927 00000-0 -13537+0 0 9991
L22 49204 87.2162 317.5516 0019845 190.3180 243.9224 14.93093788 3634

Live tracking and technical data element details for ONEWEB-0338 (NORAD 49204). ONEWEB-0338 can be tracked NOW for your location showing map with azimuth and elevation plus other details from your city location.

Track the satellite on the map from your city or location and see movement details for azimuth, elevation, latitude, longitude, range, height, and movement on the map or in text.







IsCatalogInMostPopularTable: catalog: 49204, numindb: 13
Update: records affected: 1



GetName: 49204 ONEWEB-0338

Hit Count: updated at: Tue, 19 Oct 2021 09:38:39 GMT